Regional Weather Roundup
Issued by NWS Northern Indiana

Home | Current Version | Previous Version | Graphics & Text | Print | Product List | Glossary On
Versions: 1 2 3 4 5 6 7 8 9 10 11 12 13 14 15 16 17 18 19 20 21 22 23 24 25 26 27 28 29 30 31 32 33 34 35 36 37 38 39 40 41 42 43 44 45 46 47 48 49 50
000
ASUS43 KIWX 271200
RWRIWX

KIWX WEATHER ROUNDUP
NATIONAL WEATHER SERVICE NORTHERN INDIANA
700 AM EST THU NOV 27 2014

NOTE: "FAIR" INDICATES FEW OR NO CLOUDS BELOW 12,000 FEET WITH NO
SIGNIFICANT WEATHER AND/OR OBSTRUCTIONS TO VISIBILITY.

* THESE STATIONS ARE NOT UNDER NWS QUALITY CONTROL. THEY ALSO MAY NOT
  REPORT WEATHER SUCH AS PRECIPITATION OR FOG.

INZ001>027-271300-
NORTHERN INDIANA

CITY           SKY/WX    TMP DP  RH WIND       PRES   REMARKS
GARY*          CLOUDY    28  19  69 W9        30.26R WCI  20
SOUTH BEND     LGT SNOW  28  25  88 SW3       30.20R FOG
6HR MIN TEMP:  27; 6HR MAX TEMP:  28; 6HR PCP:  0.01;

GOSHEN         CLOUDY    28  22  78 SW5       30.18S WCI  23
6HR MIN TEMP:  27; 6HR MAX TEMP:  28;

ANGOLA*        CLOUDY    27  23  86 CALM      30.15R
FORT WAYNE     CLOUDY    27  22  81 W7        30.19R WCI  19
6HR MIN TEMP:  27; 6HR MAX TEMP:  29; 6HR PCP: TRACE;


$$
INZ028>050-271300-
CENTRAL INDIANA

CITY           SKY/WX    TMP DP  RH WIND       PRES   REMARKS
LAFAYETTE      CLOUDY    27  24  89 W8        30.25R FOG     WCI  19
6HR MIN TEMP:  22; 6HR MAX TEMP:  27;

KOKOMO*        CLOUDY    27  21  80 NW10      30.22R WCI  17
6HR MIN TEMP:  27; 6HR MAX TEMP:  28;

MUNCIE*        MOCLDY    26  22  84 NW9       30.19R WCI  17
6HR MIN TEMP:  26; 6HR MAX TEMP:  28;

INDIANAPOLIS   CLOUDY    25  19  78 NW9       30.23R WCI  15
6HR MIN TEMP:  24; 6HR MAX TEMP:  28; 6HR PCP: TRACE;


$$
MIZ043>046-050>051-056>058-064>065-071>073-077>080-271300-
SOUTHWEST LOWER MICHIGAN

CITY           SKY/WX    TMP DP  RH WIND       PRES   REMARKS
BATTLE CREEK   MOCLDY    28  20  71 W6        30.15S WCI  22
6HR MIN TEMP:  28; 6HR MAX TEMP:  30;

BENTON HARBOR  LGT SNOW  27  26  96 E5        30.19R VSB 1   WCI  22
6HR MIN TEMP:  27; 6HR MAX TEMP:  27; 6HR PCP:  0.04;

HOLLAND        LGT SNOW  30  26  85 CALM      30.18R FOG
6HR MIN TEMP:  30; 6HR MAX TEMP:  31; 6HR PCP:  0.02;

GRAND RAPIDS   MOCLDY    27  22  81 NW6       30.16R WCI  20
6HR MIN TEMP:  27; 6HR MAX TEMP:  29; 6HR PCP: TRACE;

KALAMAZOO      CLOUDY    28  21  75 W3        30.17R
6HR MIN TEMP:  28; 6HR MAX TEMP:  29;


$$
OHZ001>008-015>018-024>025-271300-
NORTHWEST OHIO

CITY           SKY/WX    TMP DP  RH WIND       PRES   REMARKS
DEFIANCE       CLOUDY    29  22  75 NW9       30.17R WCI  20
6HR MIN TEMP:  29; 6HR MAX TEMP:  31;

FINDLAY        CLOUDY    30  25  81 NW10      30.13R WCI  21
6HR MIN TEMP:  30; 6HR MAX TEMP:  32;

TOLEDO EXPRESS CLOUDY    28  22  78 NW7       30.15R WCI  21
6HR MIN TEMP:  28; 6HR MAX TEMP:  30; 6HR PCP: TRACE;

TOLEDO METCALF CLOUDY    29  22  75 NW10      30.15R WCI  20
6HR MIN TEMP:  29; 6HR MAX TEMP:  32;

LIMA           CLOUDY    30  25  81 NW12      30.14R HAZE    WCI  20
6HR MIN TEMP:  30; 6HR MAX TEMP:  31; 6HR PCP: TRACE;


$$
AND FOR LAKE MICHIGAN COASTAL AND OPEN LAKE BUOY OBSERVATIONS

STATION/POSITION TEMP    WIND        PRES    VSBY  WAVE
                 AIR SEA DIR/SP/G                  HT/PER
                 (F)     (DEG/KT/KT) (MB)    (MI)  (FT/S)
CALUMET HARBOR    25     290/  8/ 11 1023.1R
MICHIGAN CITY     31     290/ 21/ 25   N/A
SAINT JOSEPH      34     320/ 16/ 19 1023.0R
SOUTH LAKE BUOY   32 42  320/ 19/ 23 1023.0R         3/ 5

$$
&&



USA.gov is the U.S. government's official web portal to all federal, state and local government web resources and services.